Hauptseite
METAR-TAF:

METAR-TAF

Flughäfen :

Glücksburg, Deutschland

Meierwik

Breite: 54-50N, Länge: 009-30E, Höhe: 27 m

Beobachtung

Neuester Wetterbericht von vor 30 Minuten, um 11:20 UTC
Wind 10 kt aus Süd/Südost
Temperatur 24°C
Luftfeuchtigkeit 50%
Luftdruck 1021 hPa

METAR: ETGG 271120Z AUTO 15010KT //// // ////// 24/13 Q1021 ///

Zeit: 13:50 (11:50 UTC)


TAF: fehlend

Wetterbeobachtungen und Prognosen von mehr als 4000 Flughäfen (METAR und TAF Bericht).

Die verfügbaren Stationen werden durch gelbe und rote Markierungen auf der Karte dargestellt.

Führen Sie die Maus auf sie, um den Namen der Station zu sehen.

Darauf klicken, um die Beobachtung von Wetterbeobachtungen und Prognosen zu sehen.

Um die Karte zu ändern : klicken Sie auf den grünen Tasten mit einem schwarzen Kreuz Zum Vergrößern, auf den grünen Button mit einem Gedankenstrich zu verkleinern, oder auf die grünen Pfeile für benachbarte Karten.


METAR-TAF: